THA471 VTBS-YSSY

Flight info

Callsign THA471
Flight time N/A
Altitude 37000
Route BUT1J BUT M904 ENREP N875 ARUPA/N0489F390 N875 PNK G464 PKN A344 MUBOT A587 DEENO/N0483F410 A587 AS A576 APOMA Y52 VELGI Y105 TARAL Y59 RIVET
Aircraft A359/H-SDE2E3GHIJ1J3J4J5LM1ORWXY/LB1D1

Departure

Time N/A
Airport Suvarnabhumi Airport (VTBS)

Arrival

Time 2026-04-24 22:34
Airport Sydney Kingsford Smith International Airport (YSSY)
Time Latitude Longitude Altitude Speed Heading
2026-04-24 21:18 -30.18855 143.09495 41374 ft 487 kts 136°
2026-04-24 21:18 -30.20984 143.12543 41365 ft 487 kts 136°
2026-04-24 21:19 -30.25243 143.18646 41379 ft 487 kts 136°
2026-04-24 21:19 -30.29498 143.24752 41379 ft 488 kts 136°
2026-04-24 21:20 -30.35870 143.33916 41378 ft 487 kts 136°
2026-04-24 21:21 -30.40110 143.40023 41376 ft 486 kts 136°
2026-04-24 21:21 -30.44349 143.46138 41387 ft 487 kts 136°
2026-04-24 21:22 -30.48584 143.52258 41388 ft 486 kts 135°
2026-04-24 21:22 -30.52809 143.58374 41387 ft 486 kts 135°
2026-04-24 21:23 -30.57026 143.64488 41392 ft 485 kts 135°
2026-04-24 21:23 -30.61244 143.70611 41390 ft 485 kts 135°
2026-04-24 21:24 -30.65457 143.76737 41396 ft 485 kts 135°
2026-04-24 21:24 -30.69632 143.82819 41391 ft 484 kts 135°
2026-04-24 21:25 -30.73825 143.88936 41387 ft 484 kts 135°
2026-04-24 21:25 -30.78017 143.95059 41393 ft 484 kts 135°
2026-04-24 21:26 -30.82205 144.01185 41396 ft 484 kts 135°
2026-04-24 21:26 -30.86394 144.07323 41395 ft 484 kts 134°
2026-04-24 21:27 -30.90579 144.13466 41393 ft 484 kts 134°
2026-04-24 21:27 -30.94760 144.19612 41391 ft 484 kts 134°
2026-04-24 21:28 -30.98941 144.25768 41411 ft 484 kts 134°
2026-04-24 21:28 -31.03109 144.31916 41400 ft 483 kts 134°
2026-04-24 21:29 -31.07269 144.38061 41398 ft 483 kts 134°
2026-04-24 21:29 -31.11425 144.44208 41395 ft 482 kts 134°
2026-04-24 21:30 -31.15580 144.50364 41414 ft 483 kts 134°
2026-04-24 21:30 -31.19727 144.56519 41400 ft 482 kts 134°
2026-04-24 21:31 -31.23868 144.62674 41403 ft 482 kts 134°
2026-04-24 21:31 -31.27334 144.67832 41408 ft 482 kts 134°
2026-04-24 21:32 -31.31470 144.73998 41406 ft 482 kts 133°
2026-04-24 21:32 -31.35600 144.80164 41418 ft 481 kts 133°
2026-04-24 21:33 -31.39723 144.86332 41399 ft 481 kts 133°
2026-04-24 21:33 -31.43815 144.92461 41414 ft 481 kts 133°
2026-04-24 21:34 -31.47936 144.98642 41417 ft 481 kts 133°
2026-04-24 21:34 -31.52052 145.04827 41416 ft 481 kts 133°
2026-04-24 21:35 -31.56160 145.11009 41419 ft 481 kts 133°
2026-04-24 21:35 -31.60263 145.17195 41424 ft 480 kts 133°
2026-04-24 21:36 -31.64364 145.23387 41425 ft 480 kts 133°
2026-04-24 21:36 -31.68462 145.29583 41429 ft 480 kts 132°
2026-04-24 21:37 -31.72548 145.35774 41427 ft 479 kts 132°
2026-04-24 21:37 -31.76627 145.41963 41430 ft 479 kts 132°
2026-04-24 21:38 -31.80706 145.48160 41438 ft 479 kts 132°
2026-04-24 21:38 -31.84781 145.54362 41449 ft 479 kts 132°
2026-04-24 21:39 -31.88846 145.60560 41433 ft 478 kts 132°
2026-04-24 21:39 -31.92905 145.66759 41436 ft 478 kts 132°
2026-04-24 21:40 -31.96962 145.72964 41440 ft 478 kts 132°
2026-04-24 21:40 -32.01016 145.79174 41450 ft 478 kts 132°
2026-04-24 21:41 -32.05064 145.85387 41434 ft 477 kts 132°
2026-04-24 21:41 -32.09104 145.91597 41447 ft 477 kts 132°
2026-04-24 21:42 -32.13140 145.97810 41448 ft 477 kts 131°
2026-04-24 21:42 -32.17172 146.04029 41449 ft 477 kts 131°
2026-04-24 21:43 -32.21199 146.10249 41451 ft 476 kts 131°
2026-04-24 21:43 -32.25215 146.16462 41451 ft 476 kts 131°
2026-04-24 21:44 -32.29230 146.22683 41456 ft 476 kts 131°
2026-04-24 21:44 -32.33241 146.28910 41455 ft 476 kts 131°
2026-04-24 21:45 -32.37249 146.35141 41454 ft 475 kts 131°
2026-04-24 21:45 -32.41247 146.41367 41454 ft 475 kts 131°
2026-04-24 21:46 -32.45240 146.47596 41459 ft 475 kts 131°
2026-04-24 21:46 -32.49229 146.53830 41459 ft 475 kts 131°
2026-04-24 21:47 -32.53215 146.60069 41458 ft 475 kts 131°
2026-04-24 21:47 -32.57199 146.66313 41460 ft 475 kts 131°
2026-04-24 21:48 -32.61179 146.72563 41462 ft 475 kts 131°
2026-04-24 21:48 -32.65157 146.78817 41465 ft 475 kts 131°
2026-04-24 21:49 -32.69341 146.84851 41476 ft 473 kts 134°
2026-04-24 21:49 -32.73618 146.90774 41462 ft 472 kts 134°
2026-04-24 21:50 -32.77901 146.96678 41465 ft 472 kts 134°
2026-04-24 21:50 -32.82175 147.02596 41465 ft 472 kts 134°
2026-04-24 21:51 -32.86438 147.08523 41466 ft 472 kts 134°
2026-04-24 21:51 -32.90696 147.14458 41470 ft 471 kts 134°
2026-04-24 21:52 -32.94946 147.20391 41467 ft 471 kts 134°
2026-04-24 21:52 -32.99188 147.26322 41472 ft 470 kts 134°
2026-04-24 21:53 -33.03428 147.32259 41473 ft 470 kts 134°
2026-04-24 21:53 -33.07667 147.38204 41497 ft 470 kts 134°
2026-04-24 21:54 -33.11899 147.44149 41478 ft 470 kts 134°
2026-04-24 21:54 -33.16128 147.50099 41480 ft 470 kts 134°
2026-04-24 21:55 -33.20325 147.56014 41481 ft 470 kts 134°
2026-04-24 21:55 -33.24547 147.61974 41485 ft 470 kts 134°
2026-04-24 21:56 -33.28764 147.67937 41485 ft 470 kts 134°
2026-04-24 21:56 -33.32973 147.73898 41486 ft 469 kts 134°
2026-04-24 21:57 -33.37178 147.79864 41487 ft 469 kts 133°
2026-04-24 21:57 -33.41381 147.85835 41490 ft 469 kts 133°
2026-04-24 21:58 -33.45580 147.91813 41490 ft 469 kts 133°
2026-04-24 21:58 -33.49778 147.97799 41491 ft 469 kts 133°
2026-04-24 21:59 -33.53971 148.03786 41495 ft 469 kts 133°
2026-04-24 21:59 -33.58162 148.09780 41494 ft 469 kts 133°
2026-04-24 22:00 -33.62349 148.15780 41496 ft 469 kts 133°
2026-04-24 22:00 -33.66534 148.21785 41507 ft 469 kts 133°
2026-04-24 22:01 -33.70714 148.27795 41493 ft 469 kts 133°
2026-04-24 22:01 -33.74890 148.33808 41493 ft 469 kts 133°
2026-04-24 22:02 -33.79059 148.39821 41512 ft 468 kts 133°
2026-04-24 22:02 -33.83229 148.45847 41512 ft 469 kts 133°
2026-04-24 22:03 -33.87394 148.51874 41507 ft 468 kts 133°
2026-04-24 22:03 -33.91556 148.57908 41507 ft 468 kts 133°
2026-04-24 22:04 -33.95715 148.63949 41512 ft 468 kts 133°
2026-04-24 22:04 -33.99871 148.69993 41520 ft 468 kts 133°
2026-04-24 22:05 -34.04024 148.76044 41540 ft 468 kts 132°
2026-04-24 22:05 -34.08168 148.82093 41526 ft 467 kts 132°
2026-04-24 22:06 -34.12305 148.88140 41529 ft 467 kts 132°
2026-04-24 22:06 -34.16438 148.94192 41532 ft 467 kts 132°
2026-04-24 22:07 -34.20567 149.00248 41529 ft 467 kts 132°
2026-04-24 22:07 -34.24687 149.06303 41418 ft 463 kts 132°
2026-04-24 22:07 -34.26726 149.09306 40799 ft 462 kts 132°
2026-04-24 22:08 -34.28772 149.12318 40026 ft 465 kts 132°
2026-04-24 22:08 -34.30829 149.15348 39275 ft 467 kts 131°
2026-04-24 22:08 -34.32892 149.18389 38449 ft 468 kts 131°
2026-04-24 22:08 -34.34946 149.21422 37793 ft 465 kts 131°
2026-04-24 22:09 -34.36990 149.24445 37194 ft 463 kts 131°
2026-04-24 22:09 -34.39023 149.27452 36568 ft 461 kts 131°
2026-04-24 22:09 -34.40968 149.30541 35927 ft 462 kts 125°
2026-04-24 22:09 -34.42490 149.33910 35303 ft 464 kts 116°
2026-04-24 22:10 -34.43509 149.37646 34486 ft 471 kts 104°
2026-04-24 22:10 -34.44156 149.41556 33568 ft 475 kts 102°
2026-04-24 22:10 -34.44677 149.45520 32699 ft 478 kts 101°
2026-04-24 22:10 -34.45138 149.49515 31819 ft 480 kts 100°
2026-04-24 22:11 -34.45580 149.53527 31014 ft 480 kts 100°
2026-04-24 22:11 -34.46020 149.57518 30400 ft 475 kts 100°
2026-04-24 22:11 -34.46463 149.61464 29766 ft 470 kts 100°
2026-04-24 22:11 -34.46910 149.65368 29126 ft 465 kts 100°
2026-04-24 22:12 -34.47359 149.69220 28528 ft 460 kts 100°
2026-04-24 22:12 -34.47807 149.73035 27931 ft 455 kts 100°
2026-04-24 22:12 -34.48251 149.76805 27328 ft 450 kts 99°
2026-04-24 22:12 -34.48691 149.80543 26759 ft 446 kts 99°
2026-04-24 22:13 -34.49125 149.84243 26169 ft 442 kts 99°
2026-04-24 22:13 -34.49548 149.87914 25577 ft 438 kts 98°
2026-04-24 22:13 -34.49636 149.91592 25017 ft 436 kts 87°
2026-04-24 22:13 -34.49060 149.95185 24447 ft 435 kts 73°
2026-04-24 22:14 -34.47858 149.98543 23825 ft 434 kts 65°
2026-04-24 22:14 -34.46466 150.01765 23208 ft 430 kts 63°
2026-04-24 22:14 -34.45532 150.03872 22819 ft 427 kts 63°
2026-04-24 22:14 -34.44133 150.07019 22241 ft 422 kts 63°
2026-04-24 22:15 -34.42747 150.10136 21659 ft 418 kts 63°
2026-04-24 22:15 -34.41373 150.13226 21080 ft 415 kts 63°
2026-04-24 22:15 -34.40010 150.16292 20514 ft 412 kts 63°
2026-04-24 22:15 -34.38656 150.19333 19929 ft 409 kts 63°
2026-04-24 22:16 -34.37310 150.22356 19343 ft 407 kts 63°
2026-04-24 22:16 -34.35967 150.25367 18744 ft 405 kts 63°
2026-04-24 22:16 -34.34635 150.28353 18104 ft 401 kts 62°
2026-04-24 22:16 -34.33316 150.31308 17503 ft 397 kts 63°
2026-04-24 22:17 -34.32010 150.34229 16909 ft 393 kts 62°
2026-04-24 22:17 -34.30714 150.37128 16348 ft 390 kts 62°
2026-04-24 22:17 -34.29426 150.40007 15760 ft 388 kts 62°
2026-04-24 22:17 -34.28147 150.42861 15188 ft 385 kts 62°
2026-04-24 22:18 -34.26884 150.45694 14646 ft 381 kts 62°
2026-04-24 22:18 -34.25626 150.48507 14058 ft 379 kts 62°
2026-04-24 22:18 -34.24376 150.51298 13487 ft 376 kts 62°
2026-04-24 22:18 -34.23138 150.54064 12939 ft 372 kts 62°
2026-04-24 22:19 -34.21911 150.56803 12379 ft 369 kts 62°
2026-04-24 22:19 -34.20694 150.59518 11831 ft 366 kts 62°
2026-04-24 22:19 -34.19485 150.62213 11288 ft 364 kts 62°
2026-04-24 22:19 -34.18302 150.64847 11092 ft 348 kts 62°
2026-04-24 22:20 -34.17178 150.67358 10962 ft 332 kts 62°
2026-04-24 22:20 -34.16100 150.69751 10848 ft 317 kts 62°
2026-04-24 22:20 -34.15071 150.72034 10714 ft 303 kts 62°
2026-04-24 22:20 -34.14084 150.74224 10531 ft 293 kts 62°
2026-04-24 22:21 -34.13272 150.76024 10143 ft 293 kts 62°
2026-04-24 22:21 -34.12260 150.78267 9733 ft 290 kts 62°
2026-04-24 22:21 -34.11309 150.80375 9359 ft 289 kts 62°
2026-04-24 22:21 -34.10351 150.82500 9040 ft 288 kts 62°
2026-04-24 22:22 -34.09399 150.84615 8774 ft 286 kts 62°
2026-04-24 22:22 -34.08453 150.86718 8523 ft 284 kts 61°
2026-04-24 22:22 -34.07512 150.88809 8277 ft 283 kts 61°
2026-04-24 22:22 -34.06573 150.90892 8018 ft 282 kts 61°
2026-04-24 22:23 -34.05641 150.92961 7761 ft 280 kts 61°
2026-04-24 22:23 -34.04712 150.95020 7526 ft 278 kts 61°
2026-04-24 22:23 -34.03798 150.97096 7282 ft 276 kts 64°
2026-04-24 22:23 -34.03275 150.99271 7048 ft 276 kts 85°
2026-04-24 22:24 -34.03542 151.01539 6795 ft 275 kts 111°
2026-04-24 22:24 -34.04575 151.03469 6546 ft 275 kts 130°
2026-04-24 22:24 -34.05884 151.05149 6302 ft 275 kts 133°
2026-04-24 22:24 -34.07237 151.06763 6055 ft 273 kts 138°
2026-04-24 22:25 -34.08862 151.07924 5818 ft 273 kts 160°
2026-04-24 22:25 -34.10683 151.08566 5600 ft 273 kts 166°
2026-04-24 22:25 -34.12545 151.09051 5402 ft 274 kts 168°
2026-04-24 22:25 -34.14413 151.09511 5205 ft 274 kts 168°
2026-04-24 22:26 -34.16278 151.09964 4989 ft 273 kts 168°
2026-04-24 22:26 -34.18138 151.10414 4789 ft 272 kts 168°
2026-04-24 22:26 -34.19988 151.10863 4550 ft 268 kts 167°
2026-04-24 22:26 -34.21656 151.11714 4315 ft 256 kts 141°
2026-04-24 22:27 -34.22808 151.13282 4100 ft 246 kts 121°
2026-04-24 22:27 -34.23667 151.15001 3999 ft 232 kts 118°
2026-04-24 22:27 -34.24439 151.16647 3998 ft 221 kts 116°
2026-04-24 22:27 -34.24925 151.18393 4001 ft 219 kts 96°
2026-04-24 22:28 -34.24809 151.20198 4003 ft 216 kts 70°
2026-04-24 22:28 -34.23968 151.21656 4005 ft 215 kts 34°
2026-04-24 22:28 -34.22579 151.22272 4011 ft 214 kts 12°
2026-04-24 22:28 -34.21103 151.22591 4008 ft 216 kts 11°
2026-04-24 22:29 -34.18118 151.23096 4013 ft 217 kts
2026-04-24 22:29 -34.16646 151.23168 4003 ft 204 kts 359°
2026-04-24 22:29 -34.15275 151.22968 3957 ft 189 kts 351°
2026-04-24 22:30 -34.14017 151.22650 3696 ft 186 kts 349°
2026-04-24 22:30 -34.12741 151.22315 3378 ft 185 kts 349°
2026-04-24 22:30 -34.11502 151.21996 3090 ft 184 kts 349°
2026-04-24 22:30 -34.10252 151.21670 2825 ft 183 kts 349°
2026-04-24 22:31 -34.09008 151.21346 2586 ft 183 kts 348°
2026-04-24 22:31 -34.07765 151.21022 2348 ft 183 kts 348°
2026-04-24 22:31 -34.06541 151.20703 2097 ft 176 kts 348°
2026-04-24 22:31 -34.05389 151.20402 1872 ft 163 kts 347°
2026-04-24 22:32 -34.04317 151.20123 1659 ft 152 kts 347°
2026-04-24 22:32 -34.03316 151.19862 1457 ft 143 kts 346°
2026-04-24 22:32 -34.02372 151.19616 1282 ft 136 kts 346°
2026-04-24 22:32 -34.01453 151.19376 1104 ft 135 kts 346°
2026-04-24 22:33 -34.00534 151.19136 923 ft 135 kts 345°
2026-04-24 22:33 -33.99621 151.18898 742 ft 134 kts 346°
2026-04-24 22:33 -33.98721 151.18663 577 ft 131 kts 347°
2026-04-24 22:33 -33.97837 151.18419 370 ft 129 kts 347°
2026-04-24 22:34 -33.96970 151.18197 183 ft 127 kts 347°
2026-04-24 22:34 -33.96113 151.17981 40 ft 125 kts 348°
2026-04-24 22:34 -33.95381 151.17794 35 ft 86 kts 348°
2026-04-24 22:34 -33.94943 151.17680 35 ft 42 kts 348°
2026-04-24 22:35 -33.94678 151.17607 36 ft 39 kts 345°
2026-04-24 22:35 -33.94436 151.17470 36 ft 31 kts 321°
2026-04-24 22:35 -33.94383 151.17416 36 ft 0 kts 318°
2026-04-24 22:36 -33.94382 151.17415 36 ft 2 kts 318°
2026-04-24 22:36 -33.94314 151.17342 36 ft 21 kts 319°
2026-04-24 22:36 -33.94176 151.17273 35 ft 20 kts 352°
2026-04-24 22:36 -33.94051 151.17245 35 ft 15 kts 349°
2026-04-24 22:37 -33.93984 151.17190 35 ft 7 kts 283°
2026-04-24 22:37 -33.93992 151.17128 36 ft 8 kts 255°
2026-04-24 22:37 -33.94012 151.17047 36 ft 12 kts 253°
2026-04-24 22:37 -33.94038 151.16941 36 ft 14 kts 253°
2026-04-24 22:38 -33.94068 151.16817 36 ft 17 kts 253°
2026-04-24 22:38 -33.94057 151.16773 36 ft 3 kts
2026-04-24 22:38 -33.93986 151.16791 36 ft 14 kts 354°
2026-04-24 22:38 -33.93892 151.16762 36 ft 13 kts 344°
2026-04-24 22:39 -33.93817 151.16736 36 ft 8 kts 344°
2026-04-24 22:39 -33.93781 151.16758 36 ft 7 kts 57°
2026-04-24 22:39 -33.93770 151.16799 36 ft 4 kts 74°
2026-04-24 22:39 -33.93765 151.16818 36 ft 1 kts 74°
2026-04-24 22:40 -33.93765 151.16820 36 ft 0 kts 74°